Ellsworth AFB, SD

7:02 AM MDT on July 26, 2017 (GMT -0600)
Ellsworth Air Force Base

Weather History for KRCA - March, 2014

Change the Weather History Date:

Saturday, March 15, 2014

  Actual Average Record
Temperature  
Mean Temperature 33 °F -  
Max Temperature 44 °F 41 °F 84 °F (2015)
Min Temperature 23 °F 22 °F 3 °F (1997)
Degree Days  
Heating Degree Days 32    
Moisture  
Dew Point 32 °F    
Average Humidity 88    
Maximum Humidity 100    
Minimum Humidity 49    
Precipitation  
Precipitation 0.09 in - - ()
Sea Level Pressure  
Sea Level Pressure 30.05 in    
Wind  
Wind Speed 12 mph (North)    
Max Wind Speed 29 mph    
Max Gust Speed 36 mph    
Visibility 8 miles    
Events Rain , Snow    
Averages and records for this station are not official NWS values.
T = Trace of Precipitation, MM = Missing Value Source: NWS Daily Summary

Daily Weather History Graph

Daily Weather History Graph

Search for Another Location

Airport or City:

Trip Planner

Search our weather history database for the weather conditions in past years. The results will help you decide how hot, cold, wet, or windy it might be!

Date:

Astronomy

Mar. 15, 2014 Rise Set
Actual Time 7:04 AM MDT 6:58 PM MDT
Civil Twilight 6:35 AM MDT 7:27 PM MDT
Nautical Twilight 6:02 AM MDT 8:01 PM MDT
Astronomical Twilight 5:28 AM MDT 8:35 PM MDT
Moon 6:19 PM MDT (3/15) 6:18 AM MDT (3/15)
Length of Visible Light 12h 51m
Length of Day
11h 54m
Waxing Gibbous, 99% of the Moon is Illuminated
Mar 15
Waxing Gibbous
Mar 16
Full
Mar 23
Last Quarter
Mar 30
New
Apr 7
First Quarter

Hourly Weather History & Observations

Time (MDT) Temp. Windchill Dew Point Humidity Pressure Visibility Wind Dir Wind Speed Gust Speed Precip Events Conditions
12:58 AM 39.0 °F 33.4 °F 27.7 °F 64% 29.82 in 10.0 mi NNW 8.1 mph - N/A   Partly Cloudy
1:58 AM 43.7 °F 38.1 °F 25.7 °F 49% 29.80 in 10.0 mi NNW 10.4 mph - N/A   Scattered Clouds
2:58 AM 37.2 °F 32.6 °F 26.2 °F 65% 29.81 in 10.0 mi NW 5.8 mph - N/A   Clear
3:58 AM 39.7 °F 35.6 °F 28.8 °F 65% 29.82 in 10.0 mi North 5.8 mph - N/A   Overcast
4:21 AM 41.0 °F 35.8 °F 30.2 °F 65% 29.81 in 10.0 mi NNW 8.1 mph - N/A Rain Light Rain
4:24 AM 41.0 °F 35.2 °F 28.4 °F 61% 29.81 in 10.0 mi NNW 9.2 mph - N/A   Overcast
4:34 AM 39.2 °F 35.0 °F 32.0 °F 75% 29.81 in 10.0 mi North 5.8 mph - N/A Rain Light Rain
4:49 AM 39.2 °F 34.2 °F 32.0 °F 75% 29.81 in 10.0 mi North 6.9 mph - N/A   Overcast
4:58 AM 38.1 °F 33.7 °F 31.3 °F 76% 29.84 in 10.0 mi North 5.8 mph - 0.00 in   Overcast
5:58 AM 36.5 °F 33.9 °F 30.6 °F 79% 29.86 in 10.0 mi NW 3.5 mph - N/A   Overcast
6:08 AM 35.6 °F 29.2 °F 32.0 °F 87% 29.84 in 10.0 mi North 8.1 mph - N/A   Overcast
6:28 AM 39.2 °F 32.5 °F 32.0 °F 75% 29.85 in 10.0 mi North 10.4 mph - N/A Rain Light Rain
6:33 AM 37.4 °F 30.8 °F 32.0 °F 81% 29.85 in 10.0 mi North 9.2 mph - N/A Rain Light Rain
6:38 AM 39.2 °F 33.6 °F 32.0 °F 75% 29.85 in 10.0 mi North 8.1 mph - N/A Rain Light Rain
6:53 AM 37.4 °F 32.8 °F 32.0 °F 81% 29.86 in 10.0 mi North 5.8 mph - N/A Rain Light Rain
6:58 AM 37.4 °F 32.8 °F 32.0 °F 81% 29.90 in 10.0 mi North 5.8 mph - 0.00 in Rain Light Rain
7:08 AM 39.2 °F 35.9 °F 33.8 °F 81% 29.86 in 10.0 mi North 4.6 mph - N/A Rain Light Rain
7:13 AM 39.2 °F 37.0 °F 33.8 °F 81% 29.86 in 10.0 mi North 3.5 mph - N/A Rain Light Rain
7:38 AM 37.4 °F 32.1 °F 33.8 °F 87% 29.87 in 10.0 mi North 6.9 mph - N/A Rain Light Rain
7:43 AM 37.4 °F 32.8 °F 33.8 °F 87% 29.88 in 10.0 mi North 5.8 mph - N/A Rain Light Rain
7:58 AM 37.4 °F 32.8 °F 35.6 °F 93% 29.93 in 10.0 mi North 5.8 mph - 0.02 in Rain Light Rain
8:18 AM 37.4 °F 33.8 °F 35.6 °F 93% 29.90 in 10.0 mi NNW 4.6 mph - N/A Rain Light Rain
8:28 AM 37.4 °F 32.8 °F 37.4 °F 100% 29.91 in 10.0 mi NNW 5.8 mph - N/A Rain Light Rain
8:50 AM 39.2 °F 28.7 °F 37.4 °F 93% 29.91 in 10.0 mi NNW 23.0 mph 29.9 mph N/A   Overcast
8:52 AM 39.2 °F 28.7 °F 37.4 °F 93% 29.92 in 10.0 mi NNW 23.0 mph 29.9 mph N/A Rain Light Rain
8:58 AM 39.4 °F 28.5 °F 36.9 °F 91% 29.97 in 10.0 mi NNW 25.3 mph 31.1 mph 0.01 in Rain Light Rain
9:13 AM 39.2 °F 29.0 °F 37.4 °F 93% 29.93 in 10.0 mi NNW 21.9 mph 29.9 mph N/A Rain Light Rain
9:18 AM 39.2 °F 28.7 °F 37.4 °F 93% 29.93 in 10.0 mi NNW 23.0 mph 29.9 mph N/A   Light Drizzle
9:28 AM 39.2 °F 28.7 °F 35.6 °F 87% 29.94 in 10.0 mi NNW 23.0 mph 34.5 mph N/A Rain Light Rain
9:58 AM 38.7 °F 27.1 °F 36.0 °F 90% 30.00 in 10.0 mi NNW 27.6 mph 31.1 mph 0.00 in Rain Light Rain
10:03 AM 39.2 °F 28.7 °F 35.6 °F 87% 29.96 in 10.0 mi NNW 23.0 mph 31.1 mph N/A Rain Light Rain
10:08 AM 39.2 °F 28.3 °F 35.6 °F 87% 29.96 in 10.0 mi NNW 25.3 mph 31.1 mph N/A Rain Light Rain
10:58 AM 39.0 °F 28.0 °F 38.7 °F 99% 30.03 in 10.0 mi NNW 25.3 mph - 0.00 in Rain Light Rain
11:02 AM 39.2 °F 28.0 °F 39.2 °F 100% 29.98 in 10.0 mi NNW 26.5 mph 33.4 mph N/A   Mostly Cloudy
11:12 AM 39.2 °F 28.0 °F 39.2 °F 100% 29.98 in 10.0 mi NNW 26.5 mph 31.1 mph N/A   Overcast
11:22 AM 41.0 °F 30.2 °F 39.2 °F 93% 29.99 in 10.0 mi NNW 27.6 mph 35.7 mph N/A   Mostly Cloudy
11:27 AM 41.0 °F 30.5 °F 41.0 °F 100% 29.99 in 10.0 mi NNW 26.5 mph 35.7 mph N/A   Overcast
11:58 AM 40.5 °F 29.3 °F 39.7 °F 97% 30.07 in 10.0 mi NNW 28.8 mph 35.7 mph 0.00 in   Overcast
12:03 PM 41.0 °F 30.7 °F 39.2 °F 93% 30.02 in 10.0 mi NNW 25.3 mph 32.2 mph N/A   Overcast
12:46 PM 41.0 °F 30.7 °F 35.6 °F 81% 30.04 in 10.0 mi NNW 25.3 mph 31.1 mph N/A   Overcast
12:58 PM 40.6 °F 30.4 °F 35.4 °F 82% 30.11 in 10.0 mi NNW 24.2 mph 28.8 mph 0.00 in Rain Light Rain
1:18 PM 41.0 °F 30.9 °F 35.6 °F 81% 30.06 in 10.0 mi NNW 24.2 mph 33.4 mph N/A   Overcast
1:23 PM 41.0 °F 31.4 °F 35.6 °F 81% 30.06 in 10.0 mi NNW 21.9 mph - N/A   Overcast
1:24 PM 41.0 °F 31.4 °F 35.6 °F 81% 30.06 in 10.0 mi NNW 21.9 mph - N/A Rain Light Rain
1:33 PM 41.0 °F 30.7 °F 35.6 °F 81% 30.06 in 10.0 mi NNW 25.3 mph 29.9 mph N/A   Overcast
1:38 PM 41.0 °F 30.7 °F 35.6 °F 81% 30.07 in 10.0 mi NNW 25.3 mph - N/A Rain Light Rain
1:56 PM 39.2 °F 28.5 °F 35.6 °F 87% 30.08 in 10.0 mi NNW 24.2 mph 34.5 mph N/A Rain Light Rain
1:58 PM 40.1 °F 29.9 °F 35.6 °F 84% 30.13 in 10.0 mi NNW 23.0 mph 34.5 mph 0.00 in Rain Light Rain
2:28 PM 37.4 °F 27.8 °F 35.6 °F 93% 30.10 in 9.0 mi North 17.3 mph 29.9 mph N/A Rain Light Rain
2:33 PM 37.4 °F 28.2 °F 33.8 °F 87% 30.10 in 10.0 mi NNE 16.1 mph 29.9 mph N/A Rain Rain
2:58 PM 33.4 °F 23.9 °F 31.8 °F 94% 30.21 in 8.0 mi North 13.8 mph 23.0 mph 0.04 in Snow Light Snow
3:28 PM 32.0 °F 21.6 °F 32.0 °F 100% 30.15 in 2.0 mi NNE 15.0 mph - N/A Snow Light Snow
3:33 PM 32.0 °F 22.1 °F 32.0 °F 100% 30.16 in 1.5 mi NNE 13.8 mph - N/A Snow Light Snow
3:43 PM 32.0 °F 22.1 °F 32.0 °F 100% 30.17 in 2.5 mi NNE 13.8 mph - N/A Snow Light Snow
3:48 PM 32.0 °F 22.1 °F 32.0 °F 100% 30.18 in 3.0 mi NNE 13.8 mph - N/A Snow Light Snow
3:58 PM 31.6 °F 21.2 °F 30.6 °F 96% 30.28 in 3.0 mi NE 15.0 mph - 0.02 in Snow Light Snow
4:58 PM 29.3 °F 17.7 °F 28.2 °F 96% 30.33 in 6.0 mi NNE 16.1 mph - 0.00 in   Overcast
5:58 PM 26.4 °F 15.0 °F 25.5 °F 96% 30.38 in 6.0 mi NE 13.8 mph - 0.00 in   Overcast
6:25 PM 24.8 °F 13.4 °F 24.8 °F 100% 30.29 in 3.0 mi NE 12.7 mph - N/A Rain Light Freezing Rain
6:58 PM 25.2 °F 15.7 °F 24.1 °F 96% 30.42 in 6.0 mi NNE 9.2 mph - 0.00 in Rain Light Freezing Rain
7:58 PM 24.4 °F 15.6 °F 23.2 °F 95% 30.43 in 5.0 mi NNE 8.1 mph - 0.00 in Rain Light Freezing Rain
8:58 PM 24.3 °F 16.3 °F 23.2 °F 96% 30.44 in 5.0 mi NE 6.9 mph - 0.00 in Rain Light Freezing Rain
9:06 PM 24.8 °F 16.9 °F 23.0 °F 93% 30.34 in 4.0 mi ENE 6.9 mph - N/A   Overcast
9:16 PM 23.0 °F 14.7 °F 23.0 °F 100% 30.34 in 4.0 mi ENE 6.9 mph - N/A   Light Freezing Drizzle
9:43 PM 23.0 °F 15.8 °F 23.0 °F 100% 30.34 in 3.0 mi East 5.8 mph - N/A   Overcast
9:58 PM 23.4 °F 16.2 °F 22.1 °F 95% 30.45 in 3.0 mi East 5.8 mph - 0.00 in   Overcast
9:59 PM 23.0 °F 17.0 °F 23.0 °F 100% 30.34 in 3.0 mi East 4.6 mph - N/A   Light Freezing Drizzle
10:31 PM 23.0 °F 17.0 °F 23.0 °F 100% 30.34 in 5.0 mi East 4.6 mph - N/A   Overcast
10:58 PM 23.2 °F 18.7 °F 21.9 °F 95% 30.45 in 6.0 mi South 3.5 mph - 0.00 in   Overcast
11:58 PM 23.9 °F 16.8 °F 22.8 °F 96% 30.43 in 6.0 mi SSW 5.8 mph - N/A   Overcast